| time (UTC) | temp C | wind direction | speed KPH | gust KPH | rain 1hr cm | rain 24hr cm | rain mn cm | humidity % | barometer mb |
| 20260505123008 | 12 | 295 | 6.4 | 8.0 | 0.00 | 2.74 | 0.00 | 82 | 1023.1 |
| 20260505122657 | 12 | 269 | 4.8 | 8.0 | 0.00 | 2.74 | 0.00 | 83 | 1023.1 |
| 20260505121008 | 12 | 239 | 0.0 | 4.8 | 0.00 | 2.74 | 0.00 | 81 | 1022.9 |
| 20260505120656 | 12 | 239 | 0.0 | 4.8 | 0.00 | 2.74 | 0.00 | 82 | 1022.9 |
| 20260505120008 | 12 | 260 | 0.0 | 4.8 | 0.00 | 2.74 | 0.00 | 82 | 1023.0 |
| 20260505115009 | 12 | 259 | 3.2 | 8.0 | 0.00 | 2.74 | 0.00 | 81 | 1022.9 |
| 20260505114655 | 12 | 222 | 0.0 | 6.4 | 0.00 | 2.74 | 0.00 | 80 | 1022.9 |
| 20260505112656 | 12 | 210 | 8.0 | 12.9 | 0.00 | 2.74 | 0.00 | 67 | 1022.6 |
| 20260505110657 | 13 | 245 | 3.2 | 8.0 | 0.00 | 2.74 | 0.00 | 71 | 1022.4 |
| 20260505100655 | 15 | 215 | 3.2 | 17.7 | 0.00 | 2.74 | 0.00 | 61 | 1021.4 |
| 20260505094656 | 16 | 205 | 4.8 | 12.9 | 0.00 | 2.74 | 0.00 | 59 | 1021.0 |
| 20260505092655 | 16 | 163 | 14.5 | 29.0 | 0.00 | 2.74 | 0.00 | 56 | 1020.8 |
| 20260505090656 | 17 | 176 | 17.7 | 30.6 | 0.00 | 2.74 | 0.00 | 56 | 1020.3 |
| 20260505084656 | 17 | 150 | 17.7 | 33.8 | 0.00 | 2.74 | 0.00 | 54 | 1020.1 |
| 20260505082655 | 17 | 198 | 14.5 | 37.0 | 0.00 | 2.74 | 0.00 | 53 | 1020.0 |
| 20260505080656 | 18 | 153 | 17.7 | 33.8 | 0.00 | 2.74 | 0.00 | 51 | 1019.9 |
| 20260505074657 | 18 | 181 | 16.1 | 37.0 | 0.00 | 2.74 | 0.00 | 50 | 1019.9 |
| 20260505072657 | 20 | 172 | 17.7 | 37.0 | 0.00 | 2.74 | 0.00 | 49 | 1019.8 |
| 20260505070655 | 20 | 158 | 19.3 | 32.2 | 0.00 | 2.74 | 0.00 | 46 | 1019.7 |
| 20260505064655 | 21 | 143 | 19.3 | 41.8 | 0.00 | 2.74 | 0.00 | 45 | 1019.4 |
| 20260505062656 | 21 | 186 | 16.1 | 35.4 | 0.00 | 2.74 | 0.00 | 42 | 1018.9 |
| 20260505060657 | 21 | 167 | 19.3 | 29.0 | 0.00 | 2.74 | 0.00 | 39 | 1018.6 |
| 20260505054655 | 22 | 165 | 17.7 | 29.0 | 0.00 | 2.74 | 0.00 | 37 | 1018.5 |
| 20260505052656 | 22 | 155 | 11.3 | 19.3 | 0.00 | 2.74 | 0.00 | 34 | 1018.6 |
| 20260505050655 | 22 | 228 | 9.7 | 19.3 | 0.00 | 2.74 | 0.00 | 30 | 1018.7 |
| 20260505040656 | 21 | 242 | 6.4 | 16.1 | 0.00 | 2.74 | 0.00 | 26 | 1019.1 |
| 20260505034656 | 21 | 195 | 8.0 | 14.5 | 0.00 | 2.74 | 0.00 | 24 | 1019.1 |
| 20260505032657 | 20 | 173 | 14.5 | 20.9 | 0.00 | 2.74 | 0.00 | 23 | 1019.2 |
| 20260505030656 | 18 | 128 | 8.0 | 17.7 | 0.00 | 2.74 | 0.00 | 26 | 1019.2 |
| 20260505024656 | 18 | 205 | 8.0 | 14.5 | 0.00 | 2.74 | 0.00 | 25 | 1019.4 |
| 20260505022656 | 18 | 146 | 1.6 | 9.7 | 0.00 | 2.74 | 0.00 | 31 | 1019.4 |
| 20260505020656 | 17 | 142 | 3.2 | 14.5 | 0.00 | 2.74 | 0.00 | 27 | 1019.7 |
| 20260505014657 | 17 | 204 | 6.4 | 11.3 | 0.00 | 2.74 | 0.00 | 39 | 1019.8 |
| 20260505012656 | 16 | 197 | 4.8 | 12.9 | 0.00 | 2.74 | 0.00 | 41 | 1019.9 |
| 20260505011009 | 16 | 142 | 0.0 | 12.9 | 0.00 | 2.74 | 0.00 | 44 | 1020.0 |
| 20260505010655 | 16 | 188 | 4.8 | 12.9 | 0.00 | 2.74 | 0.00 | 42 | 1020.1 |
| 20260505010009 | 16 | 32 | 0.0 | 11.3 | 0.00 | 2.74 | 0.00 | 45 | 1020.0 |
| 20260505005009 | 15 | 73 | 1.6 | 9.7 | 0.00 | 2.74 | 0.00 | 47 | 1020.1 |
| 20260505004655 | 15 | 135 | 4.8 | 9.7 | 0.00 | 2.74 | 0.00 | 47 | 1020.1 |
| 20260505004008 | 15 | 347 | 0.0 | 8.0 | 0.00 | 2.74 | 0.00 | 47 | 1020.1 |
| 20260505003010 | 13 | 184 | 9.7 | 12.9 | 0.00 | 2.74 | 0.00 | 46 | 1020.2 |
| 20260505002656 | 13 | 212 | 0.0 | 9.7 | 0.00 | 2.74 | 0.00 | 49 | 1020.2 |
| 20260505000655 | 12 | 82 | 3.2 | 9.7 | 0.00 | 2.74 | 0.00 | 51 | 1020.2 |
| 20260504234655 | 12 | 129 | 1.6 | 11.3 | 0.00 | 2.74 | 0.00 | 53 | 1020.1 |
| 20260504232656 | 12 | 264 | 0.0 | 11.3 | 0.00 | 2.74 | 0.00 | 56 | 1020.0 |
| 20260504230656 | 11 | 158 | 4.8 | 12.9 | 0.00 | 2.74 | 0.00 | 62 | 1020.1 |
| 20260504225008 | 10 | 172 | 6.4 | 14.5 | 0.00 | 2.74 | 0.00 | 66 | 1019.9 |
| 20260504224657 | 10 | 193 | 3.2 | 14.5 | 0.00 | 2.74 | 0.00 | 67 | 1019.9 |
| 20260504222656 | 8 | 228 | 0.0 | 11.3 | 0.00 | 2.74 | 0.00 | 72 | 1019.7 |
| 20260504220655 | 8 | 114 | 3.2 | 11.3 | 0.00 | 2.74 | 0.00 | 73 | 1019.6 |
| 20260504214657 | 7 | 179 | 8.0 | 11.3 | 0.00 | 2.74 | 0.00 | 76 | 1019.5 |
| 20260504212656 | 7 | 156 | 9.7 | 11.3 | 0.00 | 2.74 | 0.00 | 78 | 1019.3 |
| 20260504210657 | 7 | 167 | 0.0 | 4.8 | 0.00 | 2.74 | 0.00 | 80 | 1018.8 |
| 20260504204656 | 7 | 271 | 3.2 | 8.0 | 0.00 | 2.74 | 0.00 | 82 | 1018.2 |
| 20260504202655 | 7 | 210 | 0.0 | 12.9 | 0.00 | 2.74 | 0.00 | 78 | 1017.7 |
| 20260504202009 | 7 | 308 | 8.0 | 16.1 | 0.00 | 2.74 | 0.00 | 78 | 1017.5 |
| 20260504201008 | 7 | 270 | 4.8 | 14.5 | 0.00 | 2.74 | 0.00 | 80 | 1017.2 |
| 20260504200656 | 6 | 263 | 6.4 | 14.5 | 0.00 | 2.74 | 0.00 | 80 | 1017.2 |
| 20260504194657 | 7 | 305 | 9.7 | 16.1 | 0.00 | 2.74 | 0.00 | 77 | 1016.6 |
| 20260504192656 | 7 | 281 | 8.0 | 16.1 | 0.00 | 2.74 | 0.00 | 75 | 1015.6 |
| 20260504190655 | 7 | 6 | 8.0 | 12.9 | 0.00 | 2.74 | 0.00 | 85 | 1015.2 |
| 20260504184656 | 7 | 302 | 9.7 | 16.1 | 0.00 | 2.74 | 0.00 | 85 | 1014.8 |
| 20260504182657 | 7 | 332 | 0.0 | 4.8 | 0.00 | 2.74 | 0.00 | 92 | 1014.6 |
| 20260504180656 | 7 | 242 | 4.8 | 8.0 | 0.00 | 2.74 | 0.00 | 95 | 1014.3 |
| 20260504174656 | 7 | 243 | 3.2 | 8.0 | 0.00 | 2.74 | 0.00 | 96 | 1013.9 |
| 20260504173009 | 7 | 218 | 0.0 | 8.0 | 0.00 | 2.74 | 0.00 | 98 | 1013.6 |
| 20260504172655 | 7 | 139 | 4.8 | 8.0 | 0.00 | 2.74 | 0.00 | 97 | 1013.4 |
| 20260504170657 | 7 | 242 | 0.0 | 8.0 | 0.00 | 2.74 | 0.00 | 96 | 1013.1 |
| 20260504150656 | 8 | 76 | 4.8 | 6.4 | 0.00 | 2.74 | 0.00 | 87 | 1012.0 |
| 20260504140657 | 10 | 340 | 0.0 | 6.4 | 0.00 | 4.60 | 2.74 | 79 | 1011.1 |
| 20260504130655 | 12 | 113 | 6.4 | 17.7 | 0.00 | 4.60 | 2.74 | 67 | 1010.2 |